New York, NY

12:18 PM EST on February 20, 2017 (GMT -0500)
Central Park

Weather History for KNYC - February, 2013

Change the Weather History Date:

Monday, February 25, 2013

  Actual Average Record
Temperature  
Mean Temperature 39 °F 37 °F  
Max Temperature 45 °F 44 °F 75 °F (1930)
Min Temperature 32 °F 31 °F 1 °F (1914)
Degree Days  
Heating Degree Days 26 28  
Month to date heating degree days 796 750  
Since 1 July heating degree days 3305 3439  
Cooling Degree Days 0 0  
Month to date cooling degree days 0 0  
Year to date cooling degree days 0 0  
Moisture  
Dew Point 24 °F    
Average Humidity 57    
Maximum Humidity 69    
Minimum Humidity 45    
Precipitation  
Precipitation 0.00 in 0.11 in 2.11 in (1916)
Month to date precipitation 2.55 2.73  
Year to date precipitation 5.31 6.38  
Snow  
Snow 0.00 in 0.30 in 9.40 in (2010)
Month to date snowfall 12.2 8.4  
Since 1 July snowfall 18.8 20.5  
Snow Depth 0.00 in    
Sea Level Pressure  
Sea Level Pressure 30.12 in    
Wind  
Wind Speed 5 mph (NNW)    
Max Wind Speed 12 mph    
Max Gust Speed 18 mph    
Visibility 10 miles    
Events      
T = Trace of Precipitation, MM = Missing Value Source: NWS Daily Summary

Daily Weather History Graph

Daily Weather History Graph

Search for Another Location

Airport or City:

Trip Planner

Search our weather history database for the weather conditions in past years. The results will help you decide how hot, cold, wet, or windy it might be!

Date:

Astronomy

Feb. 25, 2013 Rise Set
Actual Time 6:35 AM EST 5:42 PM EST
Civil Twilight 6:08 AM EST 6:10 PM EST
Nautical Twilight 5:36 AM EST 6:42 PM EST
Astronomical Twilight 5:04 AM EST 7:13 PM EST
Moon 5:53 PM EST (2/25) 6:04 AM EST (2/25)
Length of Visible Light 12h 02m
Length of Day
11h 07m
Full, 100% of the Moon is Illuminated
Feb 25
Full
Feb 25
Full
Mar 4
Last Quarter
Mar 11
New
Mar 19
First Quarter

Hourly Weather History & Observations

Time (EST) Temp. Windchill Dew Point Humidity Pressure Visibility Wind Dir Wind Speed Gust Speed Precip Events Conditions
12:51 AM 33.1 °F - 21.0 °F 61% 29.99 in 10.0 mi North - - N/A   Clear
1:51 AM 33.1 °F 26.9 °F 21.0 °F 61% 30.01 in 10.0 mi WNW 6.9 mph - N/A   Clear
2:51 AM 33.1 °F - 21.0 °F 61% 30.01 in 10.0 mi Calm Calm - N/A   Clear
3:51 AM 32.0 °F 27.5 °F 21.9 °F 66% 30.03 in 10.0 mi Variable 4.6 mph - N/A   Clear
4:51 AM 32.0 °F 26.4 °F 21.9 °F 66% 30.04 in 10.0 mi NW 5.8 mph - N/A   Clear
5:51 AM 32.0 °F 27.5 °F 21.9 °F 66% 30.06 in 10.0 mi WNW 4.6 mph - N/A   Clear
6:51 AM 33.1 °F 30.0 °F 23.0 °F 66% 30.07 in 10.0 mi Variable 3.5 mph - N/A   Clear
7:51 AM 34.0 °F 29.8 °F 24.1 °F 67% 30.11 in 10.0 mi WNW 4.6 mph - N/A   Clear
8:51 AM 36.0 °F 33.3 °F 25.0 °F 64% 30.12 in 10.0 mi Variable 3.5 mph - N/A   Clear
9:51 AM 39.0 °F 35.7 °F 25.0 °F 57% 30.13 in 10.0 mi Variable 4.6 mph - N/A   Clear
10:51 AM 43.0 °F 40.3 °F 25.0 °F 49% 30.13 in 10.0 mi Variable 4.6 mph - N/A   Clear
11:51 AM 45.0 °F 39.7 °F 24.1 °F 44% 30.13 in 10.0 mi North 10.4 mph - N/A   Partly Cloudy
12:51 PM 43.0 °F - 23.0 °F 45% 30.14 in 10.0 mi Calm Calm - N/A   Overcast
1:51 PM 44.1 °F 41.5 °F 24.1 °F 45% 30.13 in 10.0 mi North 4.6 mph - N/A   Overcast
2:51 PM 43.0 °F 39.5 °F 23.0 °F 45% 30.14 in 10.0 mi Variable 5.8 mph - N/A   Overcast
3:51 PM 43.0 °F 38.8 °F 24.1 °F 47% 30.15 in 10.0 mi Variable 6.9 mph - N/A   Overcast
4:51 PM 43.0 °F 39.5 °F 24.1 °F 47% 30.15 in 10.0 mi WNW 5.8 mph - N/A   Overcast
5:51 PM 42.1 °F 39.2 °F 23.0 °F 47% 30.17 in 10.0 mi Variable 4.6 mph - N/A   Overcast
6:51 PM 42.1 °F 39.2 °F 26.1 °F 53% 30.19 in 10.0 mi Variable 4.6 mph - N/A   Overcast
7:51 PM 42.1 °F 38.4 °F 26.1 °F 53% 30.21 in 10.0 mi WNW 5.8 mph - N/A   Overcast
8:51 PM 42.1 °F 40.2 °F 26.1 °F 53% 30.21 in 10.0 mi NNE 3.5 mph - N/A   Overcast
9:51 PM 41.0 °F - 26.1 °F 55% 30.23 in 10.0 mi Calm Calm - N/A   Overcast
10:51 PM 41.0 °F 38.0 °F 24.1 °F 51% 30.23 in 10.0 mi NNE 4.6 mph - N/A   Overcast
11:51 PM 39.0 °F 34.0 °F 26.1 °F 60% 30.22 in 10.0 mi ENE 6.9 mph - N/A   Partly Cloudy